Preview of NWS' New Version of Forecast
This preview is not operational and should not be used for support decisions.

Regional Weather Roundup (RWR)

Issued by National Weather Service (NWS)

                            
000
ASUS43 KLSX 161957
RWRMO 

WEATHER SUMMARY FOR MISSOURI
NATIONAL WEATHER SERVICE SPRINGFIELD MO
200 PM CST SAT FEB 16 2019

NOTE: "FAIR" INDICATES FEW OR NO CLOUDS BELOW 12,000 FEET WITH NO
       SIGNIFICANT WEATHER AND/OR OBSTRUCTIONS TO VISIBILITY.
       CURRENT SKY AND/OR WEATHER CONDITIONS ARE NOT AVAILABLE FOR
       CHILLICOTHE AND FARMINGTON.

MOZ001>031-035>038-043-044-053-054-162100-
...NORTHERN AND WESTERN MISSOURI...
  
CITY           SKY/WX    TMP DP  RH WIND       PRES   REMARKS
KANSAS CTY INT MOSUNNY   24  11  57 E10       29.90F WCI  14          
LEE'S SUMMIT   SUNNY     23  13  65 NE10      29.90F WCI  12          
ST JOSEPH      MOSUNNY   23  13  65 E8        29.93F WCI  14          
CHILLICOTHE      N/A     26  14  60 E7        29.96F WCI  18          
     
$$
MOZ066>068-077>081-088>096-101>105-162100-
...SOUTHWEST MISSOURI...
  
CITY           SKY/WX    TMP DP  RH WIND       PRES   REMARKS
SPRINGFIELD    CLOUDY    30  24  78 E9        29.82F WCI  22          
JOPLIN         CLOUDY    28  25  88 NE7       29.83F WCI  21          
BRANSON        CLOUDY    30  28  93 E10       29.83F WCI  21          
               
$$
MOZ032>034-039>042-045>050-055>058-069>072-162100-
...CENTRAL MISSOURI...  
  
CITY           SKY/WX    TMP DP  RH WIND       PRES   REMARKS
COLUMBIA       NOT AVBL                                               
JEFFERSON CITY MOSUNNY   27  14  58 SE9       29.95F WCI  18          
ROLLA          CLOUDY    26  14  60 NE6       29.92F WCI  19          
SEDALIA        SUNNY     24  14  65 E8        29.93F WCI  15          
WARRENSBURG    SUNNY     25  14  63 NE8       29.93F WCI  16          
               
$$
MOZ051-052-059>065-162100-
...EAST CENTRAL MISSOURI...
  
CITY           SKY/WX    TMP DP  RH WIND       PRES   REMARKS
ST LOUIS INTL  CLOUDY    30  18  60 VRB5      29.98F WCI  25          
                   
$$
MOZ072>076-082>087-097>100-106>115-162100-
...SOUTH CENTRAL AND SOUTHEAST MISSOURI...
  
CITY           SKY/WX    TMP DP  RH WIND       PRES   REMARKS
CAPE GIRARDEAU FAIR      32  24  72 NE6       29.97F WCI  26          
POPLAR BLUFF   FAIR      31  27  85 NE8       29.95F WCI  23          
WEST PLAINS    CLOUDY    29  25  85 E9        29.87F WCI  20          
                                       
$$